Regional Weather Roundup
Issued by NWS Newport/Morehead, NC

Current Version | Previous Version | Text Only | Print | Product List | Glossary Off
Versions: 1 2 3 4 5 6 7 8 9 10 11 12 13 14 15 16 17 18 19 20 21 22 23 24 25 26 27 28 29 30 31 32 33 34 35 36 37 38 39 40 41 42 43 44 45 46 47 48 49 50
067 ASUS42 KMHX 100712 RWRMHX WEATHER ROUNDUP FOR EASTERN NORTH CAROLINA NATIONAL WEATHER SERVICE NEWPORT/MOREHEAD CITY NC 200 AM EST SAT DEC 10 2016 NOTE: "FAIR" INDICATES FEW OR NO CLOUDS BELOW 12,000 FEET WITH NO SIGNIFICANT WEATHER AND/OR OBSTRUCTIONS TO VISIBILITY NCZ015>017-031-032-045>047-102-103-100800- NORTH COAST CITY SKY/WX TMP DP RH WIND PRES REMARKS EDENTON NOT AVBL ELIZABETH CITY PTCLDY 26 19 74 W6 30.47R KITTY HAWK SUNNY 35 27 73 CALM 30.42S MANTEO CLEAR 35 23 61 N9 30.44S $$ NCZ045>047-081-094-103-104-100800- CENTRAL COAST CITY SKY/WX TMP DP RH WIND PRES REMARKS FRISCO CLEAR 38 20 48 VRB7 30.44R $$ NCZ095-097-098-100-101-100800- SOUTHERN COAST CITY SKY/WX TMP DP RH WIND PRES REMARKS BEAUFORT CLEAR 35 26 69 N8 30.47R CEDAR ISLAND NOT AVBL JACKSONVILLE CLEAR 29 19 66 NW7 30.49R PINEY ISLAND SUNNY N/A N/A N/A NW7 30.46R WILMINGTON CLEAR 30 20 66 N8 30.49R $$ NCZ011>013-027>030-043-044-078>080-089-090>093-098-100800- COASTAL PLAIN CITY SKY/WX TMP DP RH WIND PRES REMARKS AHOSKIE CLEAR 26 17 71 CALM 30.50R CLINTON CLEAR 28 24 87 CALM 30.51S ELIZABETHTOWN PTCLDY 29 22 73 CALM 30.50R GOLDSBORO CLEAR 29 16 60 NW5 30.49R GREENVILLE CLEAR 30 19 64 NW3 30.49R HAVELOCK CLEAR 31 20 63 NW8 30.49R KENANSVILLE CLEAR 28 19 69 NW3 30.50R KINSTON CLEAR 27 19 71 NW5 30.50R NEW BERN CLEAR 28 20 71 NW6 30.49R RICHLANDS CLEAR 24 21 88 VRB3 30.49R ROCKY MOUNT CLEAR 26 17 68 CALM 30.51R WASHINGTON CLEAR 28 19 68 NW5 30.49R WHITEVILLE CLEAR 30 24 77 CALM 30.49R $$ AMZ130-135-150-152-154-156-158-170-250-252-270-ANZ085-086-088-633-658-670-100800- MARINE OBSERVATIONS STATION/POSITION TIME TEMP WIND PRES WAVE SWELL AIR SEA DIR/SP/G HT/PER HT/PER (UTC) (F) (DEG/KT/KT) (MB) (FT/S) (FT/S) CHESAPEAKE LIGHT NOT AVBL 64 E VA BEACH 0650 40 58 340/ 17/ 27 1028.8 6/ 6 2/12 DUCK 0648 36 52 320/ 12/ 16 1030.0 2 E DUCK NOT AVBL OREGON INLET 0636 36 52 320/ 8/ 11 1030.4 13E OREGON INLT NOT AVBL HATTERAS CG 0648 40 53 320/ 16/ 18 1030.4 DIAMOND BUOY 0650 43 77 360/ 16/ 23 1030.3 5/ 9 3/ 9 CAPE LOOKOUT 0700 38 340/ 11/ 13 1031.1 BEAUFORT LAB 0648 35 50 330/ 5/ 8 1030.6 30 SE NEW RVR IN 0608 42 69 360/ 12/ 17 1031.1 30 SE NEW RVR IN 0643 69 N/A 3/ 4 27 SE WRIGHTSVLE 0608 43 69 10/ 14/ 21 1030.7 5 SE WRIGHTSVLE 0608 38 60 20/ 16/ 23 1031.1 225 S CAPE HAT 0650 58 73 350/ 12/ 16 1026.9 6/ 7 5/ 7 41 SE CHARLESTON 0650 50 73 30/ 16/ 21 1029.7 4/ 6 2/ 8 $$

USA.gov is the U.S. government's official web portal to all federal, state and local government web resources and services.